Location: Brahman Valley
(40.6513°N, 111.8855°W)
Time: 08:37:34
(UTC+00:00)

Tiros 1 despin weight - Pass Details

Date: 19 May 2021
Orbit: 594 x 641 km, 48.2° (Epoch: 22 June)

Event Time Altitude Azimuth Distance (km) Brightness Sun altitude
Rises 04:28:48 0° 289° (WNW) 2,928 ? -17.1°
Reaches altitude 10° 04:31:19 10° 299° (WNW) 2,025 ? -17.4°
Maximum altitude 04:35:32 32° 3° (N) 1,093 ? -18.0°
Drops below altitude 10° 04:39:45 10° 68° (ENE) 2,032 ? -18.5°
Enters shadow 04:40:24 - 71° (ENE) 2,253 ? -18.6°
Sets 04:42:18 0° 78° (ENE) 2,940 - -18.8°
